ATLAS 5 CENTAUR DEB, 43951

Orbit data source: Space-Track

ATLAS 5 CENTAUR DEB, 43951 is space debris in HEO originally from a launch on Wed, 17 Sep 2014 UTC launched from the Air Force Eastern Test Range (AFETR). Debris objects in space refer to the collection of defunct objects orbiting the Earth. Examples of debris include non-operational satellites, rocket bodies, and fragments generated from explosions, collisions, or faulty payload assembly.

Loading next visibility...
ATLAS 5 CENTAUR DEB details
Identifier
43951, 2014-055E
Orbit
HEO
Last TLE update4 days ago
Origin
Flag of USULA (US)
ManufacturerUnknown
MissionSpacecraft
Bus & MotorUnknown
MassUnknown
Launch date (UTC)
2014-09-17 (10 years ago)
Launch vehicleUnknown
Launch site
Air Force Eastern Test Range (AFETR)
Object type
Payload
Rocket body
Debris
Shape & HBRUnknown
Radar Cross SectionSmall (<0.1 m²)

Expand to show TLE details & history

TLE from 4 days ago
0 ATLAS 5 CENTAUR DEB
1 43951U 14055E   24344.72184558 -.00000017  00000-0  00000-0 0  9993
2 43951  19.8092 181.1373 5011024 101.6799 316.5768  1.89474536 43384
Epoch: 2024-12-09T17:19Z
Definitive object data (Epoch: 2024-12-09T17:19:27.458Z)
Latitude-0.0001°
Longitude-157.60291°
Altitude16,572.29 km
Speed4.504 km/s
True Right ascension12h 04m 48s
True Declination0° 00' 00"
Sunlit
Object was in daylight at TLE epoch
Visualization TLE readout
Latitude-19.73576°
Longitude106.85776°
Altitude33,280.36 km
Speed2.378 km/s
Apparent Right ascension06h 00m 49s
Apparent Declination-27° 38' 53"
Sunlit
Object is in daylight
Visualization observer readout
Local Sidereal Time03:32:14
Azimuth146.527° SSE
Elevation14.11°
Doppler factor1
Orbital elements
Apogee altitude35,035.556 km
Perigee altitude7,385.875 km
Semi-major axis27,588.853 km
Eccentricity0.5011024
Inclination19.8092°
RAAN181.1373°
Arg. of periapsis101.6799°
True anomaly258.42607°
Mean anomaly316.5768°
Eccentric anomaly289.5151°
Mean motion0.47363 °/min
BSTARUnknown
Orbital period760.08 mins
Loading maneuver chart data...

ATLAS 5 CENTAUR DEB Visibility forecast

Observer location: undefined°, undefined

Span
Click to sort rows by Start time (UTC) header in descending order
Start Az.
Max El. time (UTC)
Max El. Az.
Max El.
End time (UTC)
End Az.
427 mins2024-12-14 04:59:16.040Z146.536° SSE2024-12-14 10:51:16.040Z144.776° SSE24.304°2024-12-14 12:06:16.040Z101.797° ESE
191 mins2024-12-15 01:48:16.040Z257.451° W2024-12-15 02:31:16.040Z201.999° SSW26.838°2024-12-15 04:59:16.040Z165.563° S
|